Regional Weather Roundup
Issued by NWS

Home | Current Version | Previous Version | Text Only | Print | Product List | Glossary Off
Versions: 1 2 3 4 5 6 7 8 9 10 11 12 13 14 15 16 17 18 19 20 21 22 23 24 25 26 27 28 29 30 31 32 33 34 35 36 37 38 39 40 41 42 43 44 45 46 47 48 49 50

658
ASUS44 KLIX 042001
RWRLA
LOUISIANA WEATHER ROUNDUP
NATIONAL WEATHER SERVICE NEW ORLEANS LA
200 PM CST WED MAR 04 2015

NOTE: "FAIR" INDICATES FEW OR NO CLOUDS BELOW 12,000 FEET WITH NO
      SIGNIFICANT WEATHER AND/OR OBSTRUCTIONS TO VISIBILITY.
      SKY/WX - SKY CONDITION AND SIGNIFICANT WEATHER.
      TMP - AIR TEMPERATURE.    DP   - DEWPOINT TEMPERATURE.
      RH  - RELATIVE HUMIDITY.  PRES - PRESSURE.
      HX  - HEAT INDEX.         WCI  - WIND CHILL INDEX.

*  THESE STATIONS ARE NOT NWS OR FAA STATIONS AND ARE NOT UNDER
   NWS QUALITY CONTROL.

LAZ040-048-061>063-065-066-069-042100-
SOUTHEAST LOUISIANA

CITY           SKY/WX    TMP DP  RH WIND       PRES   REMARKS
N.O. AUDUBON   NOT AVBL
N.O. INTL ARPT PTSUNNY   80  66  62 S16G26    29.92F
N.O. LAKEFRONT MOSUNNY   84  65  52 S21       29.93F
SLIDELL        MOSUNNY   79  70  74 S9        29.92F
BATON ROUGE    PTSUNNY   82  65  56 S17       29.90F
BOOTHVILLE     MOSUNNY   77  70  79 S10       29.96F
BELLE CHASSE   PTSUNNY   82  67  60 SW18G28   29.92F
BOGALUSA*        N/A     83  63  50 SW15G22   29.92F
GALLIANO*      CLOUDY    83  71  65 S18G25    29.94F
NEW ROADS*     NOT AVBL
GONZALES*      NOT AVBL
HAMMOND*       NOT AVBL
HOUMA*         PTSUNNY   81  70  69 S16G23    29.93F
PORT FOURCHON* MOCLDY    77  70  78 SE8       29.97F

$$

LAZ041-044-053-054-042100-
SOUTHWEST LOUISIANA

CITY           SKY/WX    TMP DP  RH WIND       PRES   REMARKS
LAKE CHARLES   CLOUDY    76  68  76 SW15G31   29.87F
LAFAYETTE      PTSUNNY   79  68  69 S18G24    29.90F
PATTERSON      PTSUNNY   79  70  73 S23       29.92F
SALT POINT       N/A     76  70  82 S7        29.90F
NEW IBERIA     PTSUNNY   79  69  71 S17G24    29.91F
CHENAULT AIRPK NOT AVBL

$$

LAZ027-028-042100-
CENTRAL LOUISIANA

CITY           SKY/WX    TMP DP  RH WIND       PRES   REMARKS
FORT POLK      PTSUNNY   78  66  67 SW14G20   29.85F
ALEXANDRIA INT CLOUDY    77  66  68 SW10      29.84F
ALEXANDRIA     PTSUNNY   80  66  62 SW8       29.87F

$$

LAZ001-002-042100-
NORTHWEST LOUISIANA

CITY           SKY/WX    TMP DP  RH WIND       PRES   REMARKS
SHREVEPORT     CLOUDY    62  58  86 NW18      29.84R
BARKSDALE AFB  CLOUDY    61  59  94 NW21      29.84R
DTN SHREVEPORT CLOUDY    60  55  83 NW13      29.85R

$$

LAZ014-016-042100-
NORTHEAST LOUISIANA

CITY           SKY/WX    TMP DP  RH WIND       PRES   REMARKS
MONROE         PTSUNNY   78  65  63 S16       29.83F
TALLULAH       PTSUNNY   80  63  55 SW10G22   29.86F

$$




USA.gov is the U.S. government's official web portal to all federal, state and local government web resources and services.